Regional Weather Roundup
Issued by NWS Goodland, KS

Home | Current Version | Previous Version | Text Only | Print | Product List | Glossary Off
Versions: 1 2 3 4 5 6 7 8 9 10 11 12 13 14 15 16 17 18 19 20 21 22 23 24 25 26 27 28 29 30 31 32 33 34 35 36 37 38 39 40 41 42 43 44 45 46 47 48 49 50

000
ASUS43 KGLD 230408
RWRGLD

GOODLAND FORECAST AREA HOURLY WEATHER ROUNDUP
NATIONAL WEATHER SERVICE GOODLAND KS
1000 PM MDT WED MAR 22 2017

...OFFICIAL OBSERVATIONS...

CITY           SKY/WX    TMP DP  RH WIND       PRES   REMARKS
GOODLAND KS    CLOUDY    45  35  68 SE16      29.92F
HILL CITY KS   CLOUDY    48  37  65 SE10      30.04R
IMPERIAL NEB   CLOUDY    45  31  58 SE16      29.93F
MCCOOK NEB     PTCLDY    46  33  60 SE13      29.98F
AKRON CO       CLOUDY    50  36  58 SE18      29.86F
BURLINGTON CO  CLOUDY    50  39  66 SE23      29.90F
LIMON CO       CLOUDY    49  39  68 SE10      29.90S
$$

...UNOFFICIAL OBSERVATIONS...

CITY           SKY/WX    TMP DP  RH WIND       PRES   REMARKS
LENORA KS        N/A     46  32  58 SE8         N/A
NORTON KS      CLEAR     48  34  57 SE14      30.00
SHARON SPRINGS   N/A     50  40  67 SE20G26     N/A
TRENTON NEB      N/A     44  32  63 S12         N/A
YUMA CO        FAIR      46  36  66 SE13      29.88F
$$



USA.gov is the U.S. government's official web portal to all federal, state and local government web resources and services.